Regional Weather Roundup
Issued by NWS

Home | Current Version | Previous Version | Text Only | Print | Product List | Glossary On
Versions: 1 2 3 4 5 6 7 8 9 10 11 12 13 14 15 16 17 18 19 20 21 22 23 24 25 26 27 28 29 30 31 32 33 34 35 36 37 38 39 40 41 42 43 44 45 46 47 48 49 50
000
ASUS44 KMEG 230510
RWRTN
TENNESSEE HOURLY STATE WEATHER ROUNDUP
NATIONAL WEATHER SERVICE MEMPHIS TN
1200 AM CDT SUN APR 23 2017

TNZ002-004-019-021-049-052-054-088>092-230600-
WEST TENNESSEE

CITY           SKY/WX    TMP DP  RH WIND       PRES   REMARKS
MEMPHIS INTL   CLOUDY    52  51  97 NW9       29.93S FOG
NWS MEMPHIS      N/A     52 N/A N/A MISG        N/A
JACKSON        LGT RAIN  53  53 100 N9        29.91F FOG
DYERSBURG      CLOUDY    52  49  89 N14       29.95S
SOMERVILLE     CLOUDY    54  54 100 VRB6G13   29.90S FOG
UNION CITY     CLOUDY    54  46  76 N13       29.94F
BOLIVAR        CLOUDY    54  52  94 NW6G12    29.89F FOG
PARIS          CLOUDY    48  45  87 NE15      29.93F
HUNTINGDON     CLOUDY    52  50  93 NE13G18   29.91S
LEXINGTON      CLOUDY    52  52 100 VRB6      29.88F
SAVANNAH       CLOUDY    54  54 100 N7        29.86F FOG
$$

TNZ008-025-027-028-033-062-065-066-230600-
NORTH MIDDLE TENNESSEE

CITY           SKY/WX    TMP DP  RH WIND       PRES   REMARKS
NASHVILLE      DRIZZLE   53  50  89 N10       29.90F FOG
PORTLAND       CLOUDY    50  48  93 NE10G17   29.91F FOG
CLARKSVILLE    CLOUDY    51  45  79 NE13      29.93F
SMYRNA         CLOUDY    53  51  93 N10       29.89F
COOKEVILLE     CLOUDY    52  52 100 N5        29.86F
CROSSVILLE     FOG       51  50  96 NE6       29.89R VSB 1/4
$$

TNZ061-075-076-078-094-096-097-230600-
SOUTH MIDDLE TENNESSEE

CITY           SKY/WX    TMP DP  RH WIND       PRES   REMARKS
FAYETTEVILLE   CLOUDY    59  59 100 N7        29.84R
TULLAHOMA      CLOUDY    55  55 100 N3        29.86S VSB 3/4
WINCHESTER     CLOUDY    61  61 100 NE5       29.84F
MCMINNVILLE    CLOUDY    55  55 100 N8        29.85F
COLUMBIA       CLOUDY   N/A N/A N/A N8        29.86F
SHELBYVILLE    CLOUDY    54  54 100 N7        29.87S
$$

TNZ017-018-042-046-047-230600-
NORTHEAST TENNESSEE

CITY           SKY/WX    TMP DP  RH WIND       PRES   REMARKS
TRI CITIES     CLOUDY    57  55  93 CALM      29.90S
ELIZABETHTON   CLOUDY    59  55  88 CALM      29.90R
$$

TNZ012-013-036-069-073-074-230600-
CENTRAL EAST TENNESSEE

CITY           SKY/WX    TMP DP  RH WIND       PRES   REMARKS
KNOXVILLE      CLOUDY    59  57  93 NW3       29.86S
OAK RIDGE      CLOUDY    56  54  93 E3        29.89R
DOWNTOWN KNOXV MOCLDY    59  59 100 CALM      29.86S
GATLINBURG     PTCLDY    55  55 100 CALM      29.85F
MORRISTOWN     CLEAR     57  57 100 NE5       29.85F
JACKSBORO      CLOUDY    54  54 100 CALM      29.92S
$$

TNZ083-085-099-230600-
SOUTHEAST TENNESSEE

CITY           SKY/WX    TMP DP  RH WIND       PRES   REMARKS
CHATTANOOGA    MOCLDY    60  60 100 CALM      29.85F
$$

SKY/WX REPORTED AS FAIR MEANS FEW OR NO CLOUDS BELOW
12 THOUSAND FEET.





USA.gov is the U.S. government's official web portal to all federal, state and local government web resources and services.